Date,TemperatureHighF,TemperatureAvgF,TemperatureLowF,DewpointHighF,DewpointAvgF,DewpointLowF,HumidityHigh,HumidityAvg,HumidityLow,PressureMaxIn,PressureMinIn,WindSpeedMaxMPH,WindSpeedAvgMPH,GustSpeedMaxMPH,PrecipitationSumIn
2013-3-1,44.2,38.5,33.3,13.6,10.6,5.8,35,31,28,31.61,31.43,8,3,16,0.00
2013-3-2,35.8,32.1,29.7,10.1,6.1,3.3,41,33,30,31.61,31.61,10,2,15,0.00
2013-3-3,43.3,32.9,27.7,6.7,2.7,-2.1,34,28,20,31.61,31.58,11,3,15,0.00
2013-3-4,46.2,33.7,26.4,7.3,1.3,-3.4,31,25,20,31.61,31.61,10,3,17,0.00
2013-3-5,53.6,38.4,26.4,18.4,5.6,-0.1,51,26,18,31.61,31.61,8,2,15,0.00
2013-3-6,38.7,35.7,33.6,28.0,22.1,14.1,79,59,37,31.61,29.71,25,3,25,0.55
2013-3-7,45.5,39.6,35.8,15.2,13.0,10.3,41,34,27,30.18,30.03,10,3,17,0.00
2013-3-8,49.6,40.3,32.4,14.3,10.6,8.8,42,30,21,30.30,30.15,20,4,22,0.00
2013-3-9,63.1,42.5,27.0,16.2,11.4,4.6,51,31,16,30.39,30.24,5,1,8,0.00
2013-3-10,67.8,47.5,28.9,18.4,13.0,9.5,48,28,15,30.30,30.18,9,2,14,0.00
2013-3-11,60.3,51.9,43.0,31.6,21.6,7.3,48,31,17,30.18,29.86,13,3,17,0.00
2013-3-12,58.1,50.8,39.7,49.3,28.8,10.0,85,46,26,29.98,29.77,15,3,15,0.75
2013-3-13,50.0,38.9,32.5,13.6,7.8,2.6,37,28,19,30.06,29.89,20,4,20,0.00
2013-3-14,47.1,37.1,30.2,7.3,2.3,-1.5,28,23,19,30.15,30.03,13,4,23,0.00
2013-3-15,59.4,44.2,29.3,16.3,8.2,-0.8,32,23,17,30.09,29.77,13,4,15,0.00
2013-3-16,55.2,44.5,36.7,20.9,17.8,13.5,50,35,26,29.92,29.65,10,2,13,0.00
2013-3-17,40.1,37.3,35.6,20.3,13.1,7.3,53,38,28,30.24,29.92,10,2,12,0.00
2013-3-18,36.3,33.9,31.3,29.4,17.7,7.0,83,54,30,30.30,29.89,5,1,8,0.20
2013-3-19,59.4,43.2,33.8,34.9,20.1,0.2,85,50,17,29.92,29.74,26,4,26,0.04
2013-3-20,53.4,41.6,31.8,13.5,4.1,-4.8,39,21,18,29.98,29.77,15,5,22,0.00
2013-3-21,36.9,31.6,26.1,12.0,-0.3,-7.6,37,25,20,29.89,29.80,13,3,18,0.00
2013-3-22,48.6,35.5,25.3,8.1,1.3,-5.9,29,23,19,30.01,29.89,12,4,16,0.00
2013-3-23,57.6,39.3,23.2,13.0,6.5,0.1,44,27,17,30.03,29.92,11,2,13,0.00
2013-3-24,42.6,34.7,27.1,23.4,10.8,3.3,64,39,23,30.01,29.65,5,1,9,0.00
2013-3-25,39.4,35.4,33.3,25.9,22.5,18.0,72,60,42,29.71,29.53,6,0,8,0.39
2013-3-26,48.9,39.2,32.2,30.1,19.6,10.1,82,50,25,30.01,29.71,7,1,14,0.12
2013-3-27,50.4,41.0,33.1,15.8,12.0,7.0,43,31,19,30.12,30.01,10,3,20,0.00
2013-3-28,48.2,41.0,33.6,15.7,12.7,9.0,37,31,27,30.24,30.09,14,3,17,0.00
2013-3-29,57.6,45.6,37.0,19.8,13.1,6.3,40,28,17,30.24,30.15,6,1,10,0.00
2013-3-30,62.8,46.0,30.9,16.3,11.2,3.4,41,26,16,30.24,30.09,6,1,10,0.00
2013-3-31,50.0,46.3,40.5,40.8,24.3,3.5,77,46,20,30.09,29.74,6,0,6,0.08